Location: New Canada
(47.1017°N, 68.5042°W)
Time: 21:43:52
(UTC+00:00)

NOAA 15 - Visible Passes

Search period start: 22 March 2023 00:00
Search period end: 01 April 2023 00:00
Orbit: 797 x 811 km, 98.6° (Epoch: 22 March)

Date Brightness Start Highest point End Pass type
(mag) Time Alt. Az. Time Alt. Az. Time Alt. Az.
22 Mar 7.4 00:51:28 10° SW 00:54:51 17° W 00:58:14 10° NW visible
23 Mar 6.7 00:24:40 10° SSW 00:29:09 27° W 00:33:39 10° NW visible
23 Mar 5.8 23:58:31 10° S 00:03:34 44° W 00:08:39 10° NNW visible
24 Mar 4.9 23:32:46 10° S 23:38:04 72° WSW 23:43:24 10° NNW visible
25 Mar 7.8 01:18:26 10° W 01:18:46 10° W 01:19:06 10° W visible
26 Mar 7.3 00:49:30 10° SW 00:52:58 17° W 00:56:28 10° NW visible
27 Mar 6.7 00:22:45 10° SSW 00:27:17 28° W 00:31:51 10° NW visible
27 Mar 5.8 23:56:38 10° S 00:01:42 46° W 00:06:49 10° NNW visible
28 Mar 4.9 23:30:55 10° S 23:36:13 75° WSW 23:41:33 10° NNW visible
29 Mar 7.7 01:15:52 10° W 01:16:53 10° W 01:17:54 10° WNW visible
30 Mar 7.3 00:47:32 10° SW 00:51:06 18° W 00:54:41 10° NW visible
31 Mar 6.6 00:20:50 10° SSW 00:25:25 29° W 00:30:01 10° NW visible
